カタログに戻る

CTS DEB

ARRAY COVER

運用中MEO
NORAD 39689·DEBRIS·🇨🇦 Canada

打ち上げ Jan 17, 1976 から Cape Canaveral Space Force Station

Loading…

次のパス (今後24時間)

TLE

最新Source: Space-Track

元期: Sep 14, 2026, 00:22 UTC

1 39689U 76004F   26257.01582400 -.00000239  00000-0  00000-0 0  9999
2 39689   3.0408 265.2390 0113553  66.5800 294.1705  1.00231755 67782

AllMySatでCTS DEBをリアルタイム追跡

Download on the App Store